• în Republica Moldova
  • Lista ţărilor
  • Pe 7 zile
  • Temperatura apei
  • Hartă satelitară
  • Meteo pe hartă
  • Widget-uri
  • user-avatar
    Intrare

    Meteo pe oră la Sumgait

    Astăzi, 29 Aprilie, Sâmbătă

    Timp Temperatura Precipitaţii Vânt Presiune Umiditate
    00:00 +13°C° 0 mm 2 m/s 745 mmHg 57%
    01:00 +13°C° 0 mm 2 m/s 745 mmHg 59%
    02:00 +12°C° 0 mm 1 m/s 744 mmHg 60%
    03:00 +12°C° 0 mm 2 m/s 744 mmHg 65%
    04:00 +12°C° 0 mm 2 m/s 744 mmHg 63%
    05:00 +13°C° 0 mm 2 m/s 744 mmHg 61%
    06:00 +13°C° 0 mm 2 m/s 744 mmHg 59%
    07:00 +15°C° 0 mm 2 m/s 744 mmHg 54%
    08:00 +16°C° 0 mm 3 m/s 744 mmHg 48%
    09:00 +18°C° 0 mm 3 m/s 744 mmHg 41%
    10:00 +18°C° 0 mm 3 m/s 744 mmHg 40%
    11:00 +19°C° 0 mm 4 m/s 744 mmHg 39%
    12:00 +20°C° 0 mm 5 m/s 744 mmHg 38%
    13:00 +20°C° 0 mm 5 m/s 743 mmHg 40%
    14:00 +20°C° 0 mm 5 m/s 743 mmHg 41%
    15:00 +19°C° 0 mm 5 m/s 743 mmHg 44%
    16:00 +17°C° 0 mm 5 m/s 743 mmHg 47%
    17:00 +17°C° 0 mm 4 m/s 743 mmHg 50%
    18:00 +17°C° 0 mm 3 m/s 742 mmHg 54%
    19:00 +16°C° 0 mm 3 m/s 742 mmHg 56%
    20:00 +15°C° 0 mm 2 m/s 742 mmHg 58%
    21:00 +14°C° 0 mm 1 m/s 742 mmHg 61%
    22:00 +14°C° 0 mm 1 m/s 742 mmHg 61%
    23:00 +14°C° 0 mm 1 m/s 742 mmHg 62%

    Mâine, 30 Aprilie, Duminică

    Timp Temperatura Precipitaţii Vânt Presiune Umiditate
    00:00 +14°C° 0 mm 1 m/s 742 mmHg 63%
    01:00 +14°C° 0 mm 1 m/s 741 mmHg 65%
    02:00 +13°C° 0 mm 1 m/s 741 mmHg 66%
    03:00 +13°C° 0 mm 1 m/s 741 mmHg 67%
    04:00 +14°C° 0 mm 1 m/s 741 mmHg 65%
    05:00 +15°C° 0 mm 1 m/s 741 mmHg 63%
    06:00 +15°C° 0 mm 1 m/s 741 mmHg 60%
    07:00 +18°C° 0 mm 1 m/s 741 mmHg 54%
    08:00 +19°C° 0 mm 2 m/s 741 mmHg 48%
    09:00 +20°C° 0 mm 2 m/s 742 mmHg 42%
    10:00 +21°C° 0 mm 2 m/s 741 mmHg 40%
    11:00 +22°C° 0 mm 3 m/s 741 mmHg 38%
    12:00 +24°C° 0 mm 3 m/s 741 mmHg 35%
    13:00 +23°C° 0 mm 4 m/s 741 mmHg 35%
    14:00 +25°C° 0 mm 4 m/s 740 mmHg 34%
    15:00 +25°C° 0 mm 5 m/s 740 mmHg 33%
    16:00 +22°C° 0 mm 4 m/s 740 mmHg 36%
    17:00 +21°C° 0 mm 3 m/s 740 mmHg 38%
    18:00 +20°C° 0 mm 3 m/s 740 mmHg 40%
    19:00 +19°C° 0 mm 2 m/s 740 mmHg 43%
    20:00 +18°C° 0 mm 1 m/s 740 mmHg 46%
    21:00 +16°C° 0 mm 1 m/s 740 mmHg 49%
    22:00 +16°C° 0 mm 1 m/s 740 mmHg 50%
    23:00 +16°C° 0 mm 1 m/s 740 mmHg 51%

    Poimâine, 1 Mai, Luni

    Timp Temperatura Precipitaţii Vânt Presiune Umiditate
    00:00 +16°C° 0 mm 1 m/s 740 mmHg 52%
    01:00 +15°C° 0 mm 1 m/s 740 mmHg 53%
    02:00 +15°C° 0 mm 1 m/s 740 mmHg 53%
    03:00 +15°C° 0 mm 1 m/s 739 mmHg 53%
    04:00 +16°C° 0 mm 1 m/s 740 mmHg 52%
    05:00 +18°C° 0 mm 1 m/s 740 mmHg 50%
    06:00 +18°C° 0 mm 1 m/s 740 mmHg 49%
    07:00 +20°C° 0 mm 1 m/s 740 mmHg 45%
    08:00 +21°C° 0 mm 1 m/s 740 mmHg 41%
    09:00 +23°C° 0 mm 1 m/s 741 mmHg 37%
    10:00 +24°C° 0 mm 2 m/s 741 mmHg 36%
    11:00 +25°C° 0 mm 3 m/s 741 mmHg 34%
    12:00 +27°C° 0 mm 3 m/s 741 mmHg 32%
    13:00 +27°C° 0 mm 4 m/s 740 mmHg 32%
    14:00 +27°C° 0 mm 4 m/s 740 mmHg 32%
    15:00 +27°C° 0 mm 5 m/s 740 mmHg 32%
    16:00 +25°C° 0 mm 4 m/s 740 mmHg 35%
    17:00 +23°C° 0 mm 4 m/s 740 mmHg 38%
    18:00 +21°C° 0 mm 3 m/s 740 mmHg 41%
    19:00 +20°C° 0 mm 2 m/s 740 mmHg 44%
    20:00 +19°C° 0 mm 2 m/s 741 mmHg 47%
    21:00 +19°C° 0 mm 1 m/s 741 mmHg 50%
    22:00 +18°C° 0 mm 1 m/s 741 mmHg 50%
    23:00 +18°C° 0 mm 1 m/s 741 mmHg 50%

    2 Mai, Marţi

    Timp Temperatura Precipitaţii Vânt Presiune Umiditate
    00:00 +18°C° 0 mm 1 m/s 740 mmHg 50%
    01:00 +16°C° 0 mm 1 m/s 740 mmHg 49%
    02:00 +16°C° 0 mm 1 m/s 740 mmHg 48%
    03:00 +16°C° 0 mm 1 m/s 740 mmHg 47%
    04:00 +18°C° 0 mm 1 m/s 740 mmHg 45%
    05:00 +18°C° 0 mm 1 m/s 740 mmHg 44%
    06:00 +19°C° 0 mm 1 m/s 740 mmHg 42%
    07:00 +20°C° 0 mm 1 m/s 740 mmHg 38%
    08:00 +22°C° 0 mm 1 m/s 741 mmHg 34%
    09:00 +23°C° 0 mm 2 m/s 741 mmHg 29%
    10:00 +24°C° 0 mm 2 m/s 741 mmHg 28%
    11:00 +25°C° 0 mm 3 m/s 740 mmHg 27%
    12:00 +25°C° 0 mm 3 m/s 740 mmHg 25%
    13:00 +25°C° 0 mm 4 m/s 740 mmHg 25%
    14:00 +26°C° 0 mm 4 m/s 740 mmHg 25%
    15:00 +26°C° 0 mm 4 m/s 739 mmHg 25%
    16:00 +25°C° 0 mm 3 m/s 739 mmHg 27%
    17:00 +24°C° 0 mm 3 m/s 739 mmHg 29%
    18:00 +23°C° 0 mm 2 m/s 739 mmHg 31%
    19:00 +21°C° 0 mm 2 m/s 739 mmHg 32%
    20:00 +19°C° 0 mm 2 m/s 739 mmHg 33%
    21:00 +19°C° 0 mm 1 m/s 739 mmHg 34%
    22:00 +19°C° 0 mm 1 m/s 739 mmHg 36%
    23:00 +18°C° 0 mm 1 m/s 739 mmHg 37%

    3 Mai, Miercuri

    Timp Temperatura Precipitaţii Vânt Presiune Umiditate
    00:00 +18°C° 0 mm 1 m/s 738 mmHg 38%
    01:00 +18°C° 0 mm 1 m/s 738 mmHg 39%
    02:00 +18°C° 0 mm 1 m/s 738 mmHg 39%
    03:00 +18°C° 0 mm 1 m/s 738 mmHg 39%
    04:00 +19°C° 0 mm 1 m/s 738 mmHg 40%
    05:00 +19°C° 0 mm 1 m/s 738 mmHg 40%
    06:00 +20°C° 0 mm 1 m/s 738 mmHg 41%
    07:00 +20°C° 0 mm 2 m/s 738 mmHg 38%
    08:00 +23°C° 0 mm 2 m/s 738 mmHg 35%
    09:00 +24°C° 0 mm 3 m/s 738 mmHg 32%
    10:00 +25°C° 0 mm 3 m/s 738 mmHg 31%
    11:00 +26°C° 0 mm 4 m/s 738 mmHg 31%
    12:00 +26°C° 0 mm 4 m/s 737 mmHg 31%
    13:00 +27°C° 0 mm 5 m/s 737 mmHg 31%
    14:00 +27°C° 0 mm 5 m/s 737 mmHg 31%
    15:00 +27°C° 0 mm 5 m/s 736 mmHg 31%
    16:00 +26°C° 0 mm 5 m/s 736 mmHg 35%
    17:00 +23°C° 0 mm 4 m/s 736 mmHg 38%
    18:00 +22°C° 0 mm 4 m/s 736 mmHg 42%
    19:00 +21°C° 0,1 mm 3 m/s 736 mmHg 45%
    20:00 +20°C° 0,1 mm 2 m/s 736 mmHg 48%
    21:00 +19°C° 0,1 mm 2 m/s 736 mmHg 52%
    22:00 +19°C° 0,2 mm 2 m/s 736 mmHg 52%
    23:00 +19°C° 0,2 mm 2 m/s 736 mmHg 52%

    4 Mai, Joi

    Timp Temperatura Precipitaţii Vânt Presiune Umiditate
    00:00 +19°C° 0,2 mm 2 m/s 736 mmHg 53%
    01:00 +18°C° 0,2 mm 2 m/s 735 mmHg 55%
    02:00 +17°C° 0,2 mm 2 m/s 735 mmHg 58%
    03:00 +17°C° 0,2 mm 2 m/s 735 mmHg 61%
    04:00 +17°C° 0,1 mm 3 m/s 735 mmHg 61%
    05:00 +17°C° 0,1 mm 3 m/s 735 mmHg 61%
    06:00 +17°C° 0,1 mm 3 m/s 736 mmHg 61%
    07:00 +19°C° 0 mm 3 m/s 736 mmHg 56%
    08:00 +20°C° 0 mm 4 m/s 736 mmHg 51%
    09:00 +22°C° 0 mm 4 m/s 737 mmHg 47%
    10:00 +23°C° 0 mm 4 m/s 737 mmHg 45%
    11:00 +23°C° 0 mm 4 m/s 737 mmHg 44%
    12:00 +25°C° 0 mm 4 m/s 736 mmHg 43%
    13:00 +25°C° 0 mm 5 m/s 736 mmHg 43%
    14:00 +25°C° 0 mm 5 m/s 736 mmHg 44%
    15:00 +24°C° 0 mm 6 m/s 736 mmHg 44%
    16:00 +23°C° 0 mm 6 m/s 736 mmHg 48%
    17:00 +22°C° 0 mm 6 m/s 736 mmHg 52%
    18:00 +21°C° 0 mm 6 m/s 736 mmHg 55%
    19:00 +20°C° 0 mm 5 m/s 737 mmHg 60%
    20:00 +19°C° 0 mm 5 m/s 737 mmHg 65%
    21:00 +19°C° 0 mm 4 m/s 738 mmHg 70%
    22:00 +18°C° 0 mm 4 m/s 737 mmHg 71%
    23:00 +18°C° 0 mm 4 m/s 737 mmHg 73%
    Arată mai mult